DAL1994 KRNO-KSLC

Flight info

Callsign DAL1994
Flight time 1h 22m
Altitude 33000
Route ZEFFR9 BLKJK LLC SLOWN FLECC YUTES2
Aircraft B738/M-SDE2E3FGHIRWXY/LB1

Departure

Time 2026-05-06 16:58
Airport Reno Tahoe International Airport (KRNO)

Arrival

Time 2026-05-06 18:20
Airport Salt Lake City International Airport (KSLC)
Time Latitude Longitude Altitude Speed Heading
2026-05-06 16:34 39.50522 -119.77222 4522 ft 0 kts 244°
2026-05-06 16:51 39.50528 -119.77206 4520 ft 4 kts 246°
2026-05-06 16:51 39.50534 -119.77176 4523 ft 2 kts 271°
2026-05-06 16:51 39.50531 -119.77154 4520 ft 4 kts 342°
2026-05-06 16:52 39.50507 -119.77151 4524 ft 4 kts
2026-05-06 16:52 39.50494 -119.77151 4522 ft 0 kts
2026-05-06 16:54 39.50519 -119.77151 4521 ft 7 kts 359°
2026-05-06 16:54 39.50583 -119.77153 4521 ft 11 kts
2026-05-06 16:55 39.50667 -119.77153 4520 ft 13 kts 359°
2026-05-06 16:55 39.50770 -119.77151 4520 ft 17 kts
2026-05-06 16:55 39.50895 -119.77148 4520 ft 18 kts
2026-05-06 16:55 39.51019 -119.77150 4521 ft 18 kts 358°
2026-05-06 16:56 39.51140 -119.77152 4522 ft 17 kts
2026-05-06 16:56 39.51257 -119.77151 4522 ft 16 kts
2026-05-06 16:56 39.51369 -119.77144 4522 ft 16 kts 26°
2026-05-06 16:56 39.51379 -119.77010 4522 ft 15 kts 93°
2026-05-06 16:57 39.51375 -119.76875 4520 ft 15 kts 91°
2026-05-06 16:57 39.51377 -119.76748 4520 ft 14 kts 89°
2026-05-06 16:57 39.51310 -119.76676 4519 ft 16 kts 174°
2026-05-06 16:57 39.50977 -119.76675 4523 ft 82 kts 180°
2026-05-06 16:58 39.50186 -119.76678 4518 ft 143 kts 180°
2026-05-06 16:58 39.49035 -119.76674 4678 ft 178 kts 180°
2026-05-06 16:58 39.47773 -119.76678 5311 ft 186 kts 180°
2026-05-06 16:58 39.46464 -119.76716 5949 ft 194 kts 182°
2026-05-06 16:59 39.45088 -119.76766 6604 ft 202 kts 182°
2026-05-06 16:59 39.43662 -119.76806 7223 ft 207 kts 182°
2026-05-06 16:59 39.42201 -119.76890 7752 ft 213 kts 182°
2026-05-06 16:59 39.40695 -119.76923 8233 ft 219 kts 180°
2026-05-06 17:00 39.39147 -119.76939 8651 ft 229 kts 180°
2026-05-06 17:00 39.37509 -119.76949 9047 ft 241 kts 180°
2026-05-06 17:00 39.35776 -119.76956 9421 ft 257 kts 179°
2026-05-06 17:00 39.33930 -119.76945 9696 ft 282 kts 175°
2026-05-06 17:01 39.32029 -119.76139 10107 ft 296 kts 142°
2026-05-06 17:01 39.30699 -119.74136 10791 ft 295 kts 117°
2026-05-06 17:01 39.29696 -119.71807 11537 ft 298 kts 115°
2026-05-06 17:01 39.28705 -119.69419 12241 ft 303 kts 114°
2026-05-06 17:02 39.28072 -119.66849 12961 ft 299 kts 90°
2026-05-06 17:02 39.28329 -119.64237 13532 ft 303 kts 68°
2026-05-06 17:02 39.29374 -119.61786 13700 ft 322 kts 53°
2026-05-06 17:02 39.30727 -119.59357 13957 ft 340 kts 52°
2026-05-06 17:03 39.32137 -119.56845 14470 ft 347 kts 52°
2026-05-06 17:03 39.33523 -119.54335 15196 ft 347 kts 53°
2026-05-06 17:03 39.34915 -119.51783 15841 ft 350 kts 52°
2026-05-06 17:03 39.36473 -119.49368 16497 ft 350 kts 43°
2026-05-06 17:04 39.38276 -119.47233 17167 ft 351 kts 40°
2026-05-06 17:04 39.40107 -119.45117 17812 ft 354 kts 40°
2026-05-06 17:04 39.41950 -119.42968 18433 ft 357 kts 41°
2026-05-06 17:04 39.43765 -119.40822 18967 ft 360 kts 41°
2026-05-06 17:05 39.45625 -119.38599 19501 ft 363 kts 41°
2026-05-06 17:05 39.47497 -119.36352 19989 ft 368 kts 41°
2026-05-06 17:05 39.49379 -119.34088 20508 ft 370 kts 41°
2026-05-06 17:05 39.51365 -119.32035 20960 ft 373 kts 24°
2026-05-06 17:06 39.53878 -119.31231 21492 ft 376 kts
2026-05-06 17:06 39.56468 -119.31790 22009 ft 383 kts 340°
2026-05-06 17:06 39.58735 -119.33683 22500 ft 395 kts 318°
2026-05-06 17:06 39.60293 -119.36607 22998 ft 408 kts 297°
2026-05-06 17:07 39.61178 -119.40133 23557 ft 414 kts 288°
2026-05-06 17:07 39.61827 -119.43841 23989 ft 418 kts 285°
2026-05-06 17:07 39.62411 -119.47550 24384 ft 421 kts 285°
2026-05-06 17:07 39.62978 -119.51235 24820 ft 423 kts 285°
2026-05-06 17:08 39.63549 -119.54990 25220 ft 425 kts 285°
2026-05-06 17:08 39.64123 -119.58760 25629 ft 427 kts 285°
2026-05-06 17:08 39.64702 -119.62550 26025 ft 429 kts 285°
2026-05-06 17:08 39.65285 -119.66355 26455 ft 430 kts 285°
2026-05-06 17:09 39.65871 -119.70174 26859 ft 432 kts 285°
2026-05-06 17:09 39.66460 -119.74008 27181 ft 436 kts 285°
2026-05-06 17:09 39.67060 -119.77899 27450 ft 440 kts 285°
2026-05-06 17:09 39.67667 -119.81818 27783 ft 443 kts 285°
2026-05-06 17:10 39.68268 -119.85690 28123 ft 444 kts 284°
2026-05-06 17:10 39.68887 -119.89640 28471 ft 446 kts 284°
2026-05-06 17:10 39.69510 -119.93593 28794 ft 448 kts 285°
2026-05-06 17:10 39.70138 -119.97570 29111 ft 450 kts 285°
2026-05-06 17:11 39.70770 -120.01558 29291 ft 452 kts 285°
2026-05-06 17:11 39.71405 -120.05564 29600 ft 454 kts 285°
2026-05-06 17:11 39.72044 -120.09584 29932 ft 455 kts 285°
2026-05-06 17:11 39.72880 -120.13524 30314 ft 450 kts 296°
2026-05-06 17:12 39.74483 -120.16968 30681 ft 442 kts 313°
2026-05-06 17:12 39.76758 -120.19590 31067 ft 434 kts 330°
2026-05-06 17:12 39.79487 -120.21182 31430 ft 429 kts 347°
2026-05-06 17:12 39.82396 -120.21650 31765 ft 427 kts
2026-05-06 17:13 39.85361 -120.21429 32125 ft 425 kts
2026-05-06 17:13 39.88319 -120.21026 32468 ft 424 kts
2026-05-06 17:13 39.91248 -120.20571 32820 ft 423 kts
2026-05-06 17:13 39.94175 -120.20101 33188 ft 421 kts
2026-05-06 17:14 39.97052 -120.19632 33561 ft 419 kts
2026-05-06 17:14 39.99953 -120.19156 33891 ft 418 kts
2026-05-06 17:14 40.02845 -120.18681 34205 ft 418 kts
2026-05-06 17:14 40.05694 -120.18214 34493 ft 416 kts
2026-05-06 17:15 40.08567 -120.17744 34800 ft 414 kts
2026-05-06 17:15 40.11440 -120.17271 35067 ft 413 kts
2026-05-06 17:15 40.14260 -120.16805 35313 ft 413 kts
2026-05-06 17:15 40.17103 -120.16334 35581 ft 411 kts
2026-05-06 17:16 40.19940 -120.15863 35860 ft 410 kts
2026-05-06 17:16 40.22759 -120.15393 36113 ft 409 kts
2026-05-06 17:16 40.25515 -120.14484 36285 ft 411 kts 25°
2026-05-06 17:16 40.27813 -120.12263 36454 ft 417 kts 46°
2026-05-06 17:17 40.29423 -120.09073 36723 ft 422 kts 59°
2026-05-06 17:17 40.30547 -120.05513 36925 ft 427 kts 70°
2026-05-06 17:17 40.30944 -120.02961 37033 ft 432 kts 78°
2026-05-06 17:18 40.31604 -119.95061 37109 ft 438 kts 79°
2026-05-06 17:18 40.32206 -119.87126 37098 ft 435 kts 79°
2026-05-06 17:19 40.32838 -119.79275 37104 ft 432 kts 78°
2026-05-06 17:19 40.33487 -119.71506 37100 ft 429 kts 78°
2026-05-06 17:20 40.34144 -119.63725 37097 ft 428 kts 78°
2026-05-06 17:20 40.34790 -119.55997 37113 ft 429 kts 78°
2026-05-06 17:21 40.35445 -119.48152 37110 ft 436 kts 78°
2026-05-06 17:21 40.36098 -119.40217 37116 ft 439 kts 78°
2026-05-06 17:22 40.36745 -119.32271 37114 ft 440 kts 79°
2026-05-06 17:22 40.37391 -119.24274 37140 ft 440 kts 78°
2026-05-06 17:23 40.38026 -119.16321 37118 ft 440 kts 78°
2026-05-06 17:23 40.38658 -119.08336 37115 ft 438 kts 78°
2026-05-06 17:24 40.39278 -119.00441 37125 ft 435 kts 79°
2026-05-06 17:24 40.39894 -118.92534 37132 ft 434 kts 78°
2026-05-06 17:25 40.40503 -118.84651 37112 ft 432 kts 79°
2026-05-06 17:25 40.41099 -118.76862 37116 ft 430 kts 79°
2026-05-06 17:26 40.41692 -118.69051 37124 ft 428 kts 79°
2026-05-06 17:26 40.42274 -118.61319 37124 ft 428 kts 78°
2026-05-06 17:27 40.42857 -118.53518 37125 ft 429 kts 78°
2026-05-06 17:27 40.43434 -118.45707 37121 ft 431 kts 78°
2026-05-06 17:28 40.44008 -118.37864 37124 ft 432 kts 79°
2026-05-06 17:28 40.44579 -118.29992 37122 ft 433 kts 78°
2026-05-06 17:29 40.45145 -118.22104 37119 ft 435 kts 79°
2026-05-06 17:29 40.45702 -118.14248 37115 ft 435 kts 79°
2026-05-06 17:30 40.46261 -118.06316 37136 ft 435 kts 79°
2026-05-06 17:30 40.46812 -117.98398 37119 ft 435 kts 79°
2026-05-06 17:31 40.47358 -117.90479 37111 ft 434 kts 79°
2026-05-06 17:31 40.47893 -117.82639 37124 ft 433 kts 79°
2026-05-06 17:32 40.48426 -117.74763 37115 ft 432 kts 79°
2026-05-06 17:32 40.48952 -117.66901 37118 ft 432 kts 79°
2026-05-06 17:33 40.49473 -117.59049 37110 ft 431 kts 79°
2026-05-06 17:33 40.49987 -117.51194 37116 ft 430 kts 79°
2026-05-06 17:34 40.50494 -117.43403 37121 ft 430 kts 79°
2026-05-06 17:34 40.50997 -117.35564 37119 ft 429 kts 79°
2026-05-06 17:35 40.51490 -117.27786 37116 ft 429 kts 79°
2026-05-06 17:35 40.51983 -117.19948 37110 ft 429 kts 79°
2026-05-06 17:36 40.52707 -117.08257 37196 ft 429 kts 79°
2026-05-06 17:36 40.53187 -117.00421 37210 ft 429 kts 79°
2026-05-06 17:37 40.53659 -116.92614 37220 ft 430 kts 79°
2026-05-06 17:37 40.54128 -116.84760 37243 ft 431 kts 79°
2026-05-06 17:38 40.54593 -116.76892 37223 ft 431 kts 79°
2026-05-06 17:38 40.55050 -116.69056 37197 ft 431 kts 79°
2026-05-06 17:39 40.55505 -116.61178 37177 ft 432 kts 79°
2026-05-06 17:39 40.55954 -116.53294 37173 ft 432 kts 79°
2026-05-06 17:40 40.56397 -116.45441 37152 ft 431 kts 79°
2026-05-06 17:40 40.56872 -116.37627 37119 ft 430 kts 77°
2026-05-06 17:41 40.57597 -116.29851 37140 ft 428 kts 76°
2026-05-06 17:41 40.58376 -116.22089 37129 ft 427 kts 76°
2026-05-06 17:42 40.59130 -116.14330 37133 ft 427 kts 76°
2026-05-06 17:42 40.59860 -116.06575 37144 ft 427 kts 76°
2026-05-06 17:43 40.60577 -115.98832 37152 ft 426 kts 76°
2026-05-06 17:43 40.61285 -115.91128 37157 ft 426 kts 76°
2026-05-06 17:44 40.61992 -115.83388 37153 ft 426 kts 76°
2026-05-06 17:44 40.62695 -115.75626 37149 ft 426 kts 76°
2026-05-06 17:45 40.63392 -115.67878 37149 ft 426 kts 76°
2026-05-06 17:45 40.64080 -115.60167 37160 ft 426 kts 76°
2026-05-06 17:46 40.64769 -115.52392 37153 ft 427 kts 76°
2026-05-06 17:46 40.65451 -115.44645 37152 ft 427 kts 76°
2026-05-06 17:47 40.66095 -115.36908 37208 ft 418 kts 77°
2026-05-06 17:47 40.66750 -115.29315 37181 ft 420 kts 76°
2026-05-06 17:48 40.67436 -115.21634 37155 ft 427 kts 76°
2026-05-06 17:48 40.68110 -115.13815 37152 ft 431 kts 76°
2026-05-06 17:49 40.68770 -115.05983 37147 ft 433 kts 76°
2026-05-06 17:49 40.69432 -114.98068 37157 ft 434 kts 76°
2026-05-06 17:50 40.70089 -114.90156 37146 ft 434 kts 76°
2026-05-06 17:50 40.70477 -114.82183 37149 ft 436 kts 81°
2026-05-06 17:51 40.70627 -114.74258 37149 ft 433 kts 81°
2026-05-06 17:51 40.70777 -114.66343 37138 ft 431 kts 81°
2026-05-06 17:52 40.70951 -114.58454 37152 ft 428 kts 81°
2026-05-06 17:52 40.71131 -114.50678 37140 ft 426 kts 81°
2026-05-06 17:53 40.71309 -114.42858 37152 ft 425 kts 81°
2026-05-06 17:53 40.71480 -114.35097 37190 ft 424 kts 80°
2026-05-06 17:54 40.71566 -114.31176 36813 ft 430 kts 81°
2026-05-06 17:54 40.71649 -114.27280 36388 ft 427 kts 81°
2026-05-06 17:54 40.71729 -114.23382 35846 ft 428 kts 81°
2026-05-06 17:54 40.71810 -114.19438 35264 ft 429 kts 81°
2026-05-06 17:55 40.71888 -114.15500 34695 ft 429 kts 81°
2026-05-06 17:55 40.71966 -114.11564 34090 ft 430 kts 81°
2026-05-06 17:55 40.72043 -114.07612 33406 ft 432 kts 81°
2026-05-06 17:55 40.72118 -114.03658 32766 ft 432 kts 81°
2026-05-06 17:56 40.72192 -113.99688 32097 ft 433 kts 81°
2026-05-06 17:56 40.72265 -113.95717 31444 ft 434 kts 81°
2026-05-06 17:56 40.72337 -113.91729 30774 ft 435 kts 81°
2026-05-06 17:56 40.72407 -113.87737 30049 ft 437 kts 82°
2026-05-06 17:57 40.72477 -113.83729 29220 ft 438 kts 82°
2026-05-06 17:57 40.72545 -113.79708 28439 ft 438 kts 82°
2026-05-06 17:57 40.72609 -113.75709 27910 ft 433 kts 82°
2026-05-06 17:57 40.72641 -113.71760 27351 ft 430 kts 82°
2026-05-06 17:58 40.72639 -113.67876 26765 ft 427 kts 83°
2026-05-06 17:58 40.72624 -113.63978 26236 ft 423 kts 83°
2026-05-06 17:58 40.72607 -113.60116 25706 ft 419 kts 83°
2026-05-06 17:58 40.72593 -113.56290 25184 ft 415 kts 83°
2026-05-06 17:59 40.72581 -113.52498 24673 ft 412 kts 83°
2026-05-06 17:59 40.72571 -113.48737 24150 ft 409 kts 83°
2026-05-06 17:59 40.72561 -113.45001 23608 ft 407 kts 83°
2026-05-06 17:59 40.72551 -113.41287 23041 ft 404 kts 83°
2026-05-06 18:00 40.72540 -113.37600 22479 ft 401 kts 83°
2026-05-06 18:00 40.72528 -113.33940 21946 ft 397 kts 83°
2026-05-06 18:00 40.72514 -113.30316 21436 ft 394 kts 83°
2026-05-06 18:00 40.72500 -113.26725 20937 ft 390 kts 83°
2026-05-06 18:01 40.72484 -113.23154 20430 ft 388 kts 83°
2026-05-06 18:01 40.72468 -113.19607 19937 ft 385 kts 83°
2026-05-06 18:01 40.72452 -113.16132 19453 ft 383 kts 84°
2026-05-06 18:01 40.72433 -113.12630 18962 ft 381 kts 84°
2026-05-06 18:02 40.72415 -113.09137 18470 ft 380 kts 84°
2026-05-06 18:02 40.72395 -113.05649 17990 ft 377 kts 84°
2026-05-06 18:02 40.72370 -113.02250 17845 ft 365 kts 84°
2026-05-06 18:02 40.72347 -112.98948 17666 ft 355 kts 84°
2026-05-06 18:03 40.72325 -112.95735 17517 ft 345 kts 84°
2026-05-06 18:03 40.72305 -112.92655 17374 ft 335 kts 83°
2026-05-06 18:03 40.72282 -112.89610 17226 ft 326 kts 83°
2026-05-06 18:03 40.72259 -112.86661 17095 ft 316 kts 83°
2026-05-06 18:04 40.72236 -112.83792 16909 ft 311 kts 83°
2026-05-06 18:04 40.72212 -112.80936 16643 ft 311 kts 83°
2026-05-06 18:04 40.72188 -112.78117 16454 ft 311 kts 83°
2026-05-06 18:04 40.72163 -112.75255 16236 ft 313 kts 83°
2026-05-06 18:05 40.72136 -112.72374 16021 ft 313 kts 83°
2026-05-06 18:05 40.72108 -112.69510 15800 ft 312 kts 83°
2026-05-06 18:05 40.72078 -112.66658 15588 ft 310 kts 83°
2026-05-06 18:05 40.72048 -112.63824 15383 ft 308 kts 83°
2026-05-06 18:06 40.72019 -112.61038 15177 ft 306 kts 82°
2026-05-06 18:06 40.71997 -112.58233 14976 ft 305 kts 82°
2026-05-06 18:06 40.71975 -112.55449 14775 ft 303 kts 82°
2026-05-06 18:06 40.71993 -112.52676 14569 ft 297 kts 76°
2026-05-06 18:07 40.72330 -112.50029 14383 ft 290 kts 70°
2026-05-06 18:07 40.72786 -112.47454 14278 ft 287 kts 69°
2026-05-06 18:07 40.73246 -112.44925 14115 ft 286 kts 69°
2026-05-06 18:07 40.73700 -112.42376 13908 ft 286 kts 69°
2026-05-06 18:08 40.74142 -112.39821 13689 ft 285 kts 69°
2026-05-06 18:08 40.74429 -112.38124 13553 ft 284 kts 70°
2026-05-06 18:08 40.74992 -112.34745 13293 ft 283 kts 70°
2026-05-06 18:08 40.75412 -112.32203 13098 ft 282 kts 70°
2026-05-06 18:09 40.75689 -112.30527 12974 ft 282 kts 70°
2026-05-06 18:09 40.76054 -112.27964 12780 ft 284 kts 74°
2026-05-06 18:09 40.76345 -112.25384 12587 ft 285 kts 75°
2026-05-06 18:09 40.76631 -112.22797 12394 ft 285 kts 75°
2026-05-06 18:10 40.76919 -112.20231 12200 ft 285 kts 75°
2026-05-06 18:10 40.76890 -112.17583 11980 ft 298 kts 95°
2026-05-06 18:10 40.76173 -112.14968 11834 ft 305 kts 107°
2026-05-06 18:10 40.75288 -112.12426 11661 ft 306 kts 113°
2026-05-06 18:11 40.73969 -112.10201 11445 ft 312 kts 139°
2026-05-06 18:11 40.72062 -112.08888 11349 ft 307 kts 162°
2026-05-06 18:11 40.70028 -112.08460 11316 ft 292 kts 173°
2026-05-06 18:11 40.68047 -112.08260 11214 ft 278 kts 175°
2026-05-06 18:12 40.66104 -112.08088 10701 ft 282 kts 175°
2026-05-06 18:12 40.64170 -112.07900 10399 ft 275 kts 174°
2026-05-06 18:12 40.62298 -112.07700 10135 ft 264 kts 175°
2026-05-06 18:12 40.60492 -112.07499 9853 ft 255 kts 174°
2026-05-06 18:13 40.58760 -112.07303 9606 ft 245 kts 174°
2026-05-06 18:13 40.57114 -112.07075 9386 ft 236 kts 168°
2026-05-06 18:13 40.55662 -112.06244 9188 ft 222 kts 139°
2026-05-06 18:13 40.54720 -112.04711 9001 ft 214 kts 111°
2026-05-06 18:14 40.54276 -112.02877 8825 ft 207 kts 94°
2026-05-06 18:14 40.54381 -112.01009 8599 ft 204 kts 71°
2026-05-06 18:14 40.54943 -111.99380 8545 ft 191 kts 53°
2026-05-06 18:14 40.55876 -111.98186 8399 ft 184 kts 32°
2026-05-06 18:15 40.57008 -111.97482 8230 ft 175 kts 13°
2026-05-06 18:15 40.58219 -111.97352 8018 ft 175 kts 358°
2026-05-06 18:15 40.59436 -111.97443 7784 ft 177 kts 354°
2026-05-06 18:15 40.60667 -111.97586 7544 ft 177 kts 354°
2026-05-06 18:16 40.61872 -111.97728 7311 ft 173 kts 353°
2026-05-06 18:16 40.63053 -111.97866 7087 ft 170 kts 353°
2026-05-06 18:16 40.64218 -111.98003 6853 ft 166 kts 353°
2026-05-06 18:16 40.65314 -111.98129 6637 ft 153 kts 354°
2026-05-06 18:17 40.66347 -111.98249 6424 ft 147 kts 353°
2026-05-06 18:17 40.67341 -111.98365 6257 ft 146 kts 353°
2026-05-06 18:17 40.68352 -111.98484 6065 ft 148 kts 353°
2026-05-06 18:17 40.69394 -111.98606 5867 ft 154 kts 352°
2026-05-06 18:18 40.70461 -111.98729 5675 ft 155 kts 353°
2026-05-06 18:18 40.71530 -111.98852 5445 ft 150 kts 353°
2026-05-06 18:18 40.72540 -111.98975 5235 ft 144 kts 353°
2026-05-06 18:18 40.73524 -111.99089 5052 ft 140 kts 355°
2026-05-06 18:19 40.74489 -111.99198 4886 ft 140 kts 355°
2026-05-06 18:19 40.75476 -111.99309 4733 ft 144 kts 354°
2026-05-06 18:19 40.76490 -111.99405 4546 ft 148 kts 354°
2026-05-06 18:19 40.77493 -111.99534 4364 ft 144 kts 354°
2026-05-06 18:20 40.78421 -111.99655 4229 ft 123 kts 355°
2026-05-06 18:20 40.79120 -111.99752 4231 ft 80 kts 354°
2026-05-06 18:20 40.79452 -111.99707 4229 ft 26 kts 33°
2026-05-06 18:20 40.79533 -111.99588 4229 ft 17 kts 72°
2026-05-06 18:21 40.79480 -111.99471 4230 ft 16 kts 162°
2026-05-06 18:21 40.79369 -111.99456 4230 ft 16 kts 173°
2026-05-06 18:21 40.79263 -111.99439 4229 ft 15 kts 173°
2026-05-06 18:21 40.79162 -111.99426 4230 ft 14 kts 174°
2026-05-06 18:22 40.79064 -111.99412 4230 ft 14 kts 174°
2026-05-06 18:22 40.78971 -111.99400 4230 ft 13 kts 174°
2026-05-06 18:22 40.78882 -111.99390 4230 ft 13 kts 176°
2026-05-06 18:22 40.78794 -111.99384 4231 ft 12 kts 176°
2026-05-06 18:23 40.78727 -111.99331 4230 ft 12 kts 100°
2026-05-06 18:23 40.78728 -111.99222 4230 ft 12 kts 91°
2026-05-06 18:23 40.78731 -111.99114 4230 ft 12 kts 85°
2026-05-06 18:23 40.78738 -111.99010 4230 ft 11 kts 84°
2026-05-06 18:24 40.78746 -111.98910 4230 ft 11 kts 84°
2026-05-06 18:24 40.78755 -111.98811 4230 ft 11 kts 83°
2026-05-06 18:24 40.78761 -111.98716 4230 ft 10 kts 85°
2026-05-06 18:24 40.78768 -111.98629 4230 ft 6 kts 81°
2026-05-06 18:25 40.78796 -111.98606 4229 ft 4 kts 352°
2026-05-06 18:25 40.78823 -111.98611 4230 ft 4 kts 354°
2026-05-06 18:25 40.78839 -111.98613 4230 ft 0 kts 354°